Weather History for Tomahawk, WI

Change the Weather History Date:

Saturday, February 2, 2013

  Actual Average (KRHI) Record (KRHI)
Temperature  
Mean Temperature 2 °F 13 °F  
Max Temperature 14 °F 23 °F 47 °F (1991)
Min Temperature -11 °F 4 °F -36 °F (1996)
Degree Days  
Heating Degree Days 64 52  
Month to date heating degree days 104  
Since 1 July heating degree days 5365  
Cooling Degree Days 0 0  
Month to date cooling degree days 0  
Year to date cooling degree days 0  
Moisture  
Dew Point -6 °F    
Average Humidity 67    
Maximum Humidity 85    
Minimum Humidity 45    
Precipitation  
Precipitation 0.00 in 0.03 in 0.59 in (1983)
Month to date precipitation 0.06  
Year to date precipitation 1.17  
Snow  
Snow 0.00 in - 5.80 in (1953)
Month to date snowfall  
Since 1 July snowfall  
Snow Depth -    
Sea Level Pressure  
Sea Level Pressure 29.98 in    
Wind  
Wind Speed 1 mph (NNW)    
Max Wind Speed 6 mph    
Max Gust Speed -    
Visibility 10 miles    
Events Snow    
T = Trace of Precipitation, MM = Missing Value Source: NWS Daily Summary

Daily Weather History Graph

Daily Weather History Graph

Search for Another Location

Airport:

Trip Planner

Search our weather history database for the weather conditions in past years. The results will help you decide how hot, cold, wet, or windy it might be!

Date:

Astronomy

Feb. 02, 2013 Rise Set
Actual Time 7:18 AM CST 5:07 PM CST
Civil Twilight 6:47 AM CST 5:39 PM CST
Nautical Twilight 6:11 AM CST 6:14 PM CST
Astronomical Twilight 5:37 AM CST 6:49 PM CST
Moon No Moon Rise 10:06 AM CST (2/2)
Length of Visible Light 10h 52m
Length of Day
9h 49m
Waning Gibbous, 59% of the Moon is Illuminated
Feb 2
Waning Gibbous
Feb 3
Last Quarter
Feb 10
New
Feb 17
First Quarter
Feb 25
Full

Hourly Weather History & Observations

Time (CST) Temp. Windchill Dew Point Humidity Pressure Visibility Wind Dir Wind Speed Gust Speed Precip Events Conditions
12:15 AM -2.2 °F - -7.6 °F 78% 30.01 in 5.0 mi Calm Calm - N/A   Haze
12:35 AM -2.2 °F - -7.6 °F 78% 30.00 in 7.0 mi Calm Calm - N/A   Overcast
12:55 AM -2.2 °F - -7.6 °F 78% 30.00 in 7.0 mi Calm Calm - N/A   Overcast
1:15 AM -2.2 °F - -7.6 °F 78% 30.00 in 7.0 mi Calm Calm - N/A   Overcast
1:35 AM -2.2 °F - -7.6 °F 78% 30.00 in 7.0 mi Calm Calm - N/A   Overcast
1:55 AM -2.2 °F - -7.6 °F 78% 30.00 in 7.0 mi Calm Calm - N/A   Overcast
2:15 AM -2.2 °F - -7.6 °F 78% 30.01 in 5.0 mi Calm Calm - N/A Snow Light Snow
2:35 AM -2.2 °F - -7.6 °F 78% 30.00 in 7.0 mi Calm Calm - N/A   Overcast
2:55 AM -2.2 °F - -7.6 °F 78% 30.00 in 7.0 mi Calm Calm - N/A   Overcast
3:15 AM -2.2 °F - -7.6 °F 78% 30.00 in 10.0 mi Calm Calm - N/A   Overcast
3:35 AM -2.2 °F - -7.6 °F 78% 30.00 in 10.0 mi Calm Calm - N/A   Overcast
3:55 AM -2.2 °F -10.4 °F -7.6 °F 78% 29.99 in 10.0 mi NW 3.5 mph - N/A   Overcast
4:15 AM -2.2 °F -10.4 °F -7.6 °F 78% 29.99 in 10.0 mi NW 3.5 mph - N/A   Overcast
4:35 AM -2.2 °F -10.4 °F -7.6 °F 78% 30.00 in 10.0 mi NNW 3.5 mph - N/A   Overcast
4:55 AM -2.2 °F -10.4 °F -7.6 °F 78% 30.00 in 10.0 mi NW 3.5 mph - N/A   Overcast
5:15 AM -2.2 °F -12.5 °F -7.6 °F 78% 30.00 in 10.0 mi NW 4.6 mph - N/A   Overcast
5:35 AM -2.2 °F -10.4 °F -7.6 °F 78% 30.01 in 10.0 mi NW 3.5 mph - N/A   Overcast
5:55 AM -2.2 °F -10.4 °F -7.6 °F 78% 30.02 in 10.0 mi NNW 3.5 mph - N/A   Overcast
6:15 AM -4.0 °F -12.4 °F -7.6 °F 85% 30.02 in 10.0 mi NW 3.5 mph - N/A   Overcast
6:35 AM -4.0 °F -12.4 °F -9.4 °F 78% 30.02 in 10.0 mi NW 3.5 mph - N/A   Overcast
6:55 AM -5.8 °F -14.5 °F -9.4 °F 84% 30.03 in 10.0 mi NW 3.5 mph - N/A   Mostly Cloudy
7:15 AM -5.8 °F - -9.4 °F 84% 30.03 in 10.0 mi Calm Calm - N/A   Clear
7:35 AM -7.6 °F - -13.0 °F 77% 30.03 in 10.0 mi Calm Calm - N/A   Clear
7:55 AM -11.2 °F - -14.8 °F 84% 30.04 in 10.0 mi Calm Calm - N/A   Clear
8:15 AM -7.6 °F - -11.2 °F 84% 30.04 in 10.0 mi Calm Calm - N/A   Clear
8:35 AM -4.0 °F - -9.4 °F 78% 30.04 in 10.0 mi Calm Calm - N/A   Clear
8:55 AM -2.2 °F -10.4 °F -7.6 °F 78% 30.04 in 10.0 mi NW 3.5 mph - N/A   Clear
9:15 AM -0.4 °F - -7.6 °F 72% 30.04 in 10.0 mi Calm Calm - N/A   Clear
9:35 AM 1.4 °F -9.9 °F -7.6 °F 66% 30.04 in 10.0 mi North 5.8 mph - N/A   Clear
9:55 AM 1.4 °F - -5.8 °F 72% 30.04 in 10.0 mi Calm Calm - N/A   Clear
10:15 AM 3.2 °F - -5.8 °F 66% 30.04 in 10.0 mi Calm Calm - N/A   Clear
10:35 AM 5.0 °F -2.1 °F -4.0 °F 66% 30.04 in 10.0 mi NNE 3.5 mph - N/A   Clear
10:55 AM 6.8 °F - -4.0 °F 61% 30.04 in 10.0 mi Calm Calm - N/A   Clear
11:15 AM 8.6 °F 2.0 °F -4.0 °F 57% 30.04 in 10.0 mi NE 3.5 mph - N/A   Scattered Clouds
11:35 AM 8.6 °F 0.1 °F -4.0 °F 57% 30.03 in 10.0 mi NE 4.6 mph - N/A   Scattered Clouds
11:55 AM 8.6 °F 0.1 °F -4.0 °F 57% 30.02 in 10.0 mi North 4.6 mph - N/A   Scattered Clouds
12:15 PM 8.6 °F - -4.0 °F 57% 30.02 in 10.0 mi Calm Calm - N/A   Scattered Clouds
12:35 PM 10.4 °F 2.2 °F -4.0 °F 52% 30.01 in 10.0 mi WNW 4.6 mph - N/A   Scattered Clouds
12:55 PM 10.4 °F - -4.0 °F 52% 30.00 in 10.0 mi Calm Calm - N/A   Scattered Clouds
1:15 PM 10.4 °F - -4.0 °F 52% 29.99 in 10.0 mi Calm Calm - N/A   Scattered Clouds
1:35 PM 12.2 °F 4.3 °F -4.0 °F 48% 29.99 in 10.0 mi NNE 4.6 mph - N/A   Clear
1:55 PM 12.2 °F - -4.0 °F 48% 29.98 in 10.0 mi Calm Calm - N/A   Clear
2:15 PM 12.2 °F - -4.0 °F 48% 29.97 in 10.0 mi Calm Calm - N/A   Clear
2:35 PM 14.0 °F - -4.0 °F 45% 29.97 in 10.0 mi Calm Calm - N/A   Clear
2:55 PM 14.0 °F 8.2 °F -4.0 °F 45% 29.96 in 10.0 mi NE 3.5 mph - N/A   Clear
3:15 PM 14.0 °F - -4.0 °F 45% 29.96 in 10.0 mi Calm Calm - N/A   Clear
3:35 PM 12.2 °F 6.1 °F -4.0 °F 48% 29.96 in 10.0 mi South 3.5 mph - N/A   Clear
3:55 PM 12.2 °F - -4.0 °F 48% 29.96 in 10.0 mi Calm Calm - N/A   Clear
4:15 PM 12.2 °F - -4.0 °F 48% 29.96 in 10.0 mi Calm Calm - N/A   Scattered Clouds
4:35 PM 12.2 °F - -4.0 °F 48% 29.96 in 10.0 mi Calm Calm - N/A   Mostly Cloudy
4:55 PM 10.4 °F - -4.0 °F 52% 29.96 in 10.0 mi Calm Calm - N/A   Mostly Cloudy
5:15 PM 8.6 °F - -4.0 °F 57% 29.96 in 10.0 mi Calm Calm - N/A   Clear
5:35 PM 10.4 °F - -4.0 °F 52% 29.96 in 10.0 mi Calm Calm - N/A   Scattered Clouds
5:55 PM 8.6 °F - -4.0 °F 57% 29.96 in 10.0 mi Calm Calm - N/A   Mostly Cloudy
6:15 PM 8.6 °F 0.1 °F -4.0 °F 57% 29.96 in 10.0 mi SW 4.6 mph - N/A   Overcast
6:35 PM 6.8 °F - -4.0 °F 61% 29.95 in 10.0 mi Calm Calm - N/A   Overcast
6:55 PM 5.0 °F - -4.0 °F 66% 29.95 in 10.0 mi Calm Calm - N/A   Mostly Cloudy
7:15 PM 5.0 °F - -4.0 °F 66% 29.95 in 10.0 mi Calm Calm - N/A   Clear
7:35 PM 3.2 °F - -5.8 °F 66% 29.95 in 10.0 mi Calm Calm - N/A   Clear
7:55 PM 3.2 °F - -5.8 °F 66% 29.95 in 10.0 mi Calm Calm - N/A   Clear
8:15 PM 1.4 °F - -5.8 °F 72% 29.95 in 10.0 mi Calm Calm - N/A   Scattered Clouds
8:35 PM 3.2 °F - -5.8 °F 66% 29.95 in 10.0 mi Calm Calm - N/A   Overcast
8:55 PM 3.2 °F - -5.8 °F 66% 29.92 in 10.0 mi Calm Calm - N/A   Overcast
9:15 PM 3.2 °F - -4.0 °F 72% 29.92 in 10.0 mi Calm Calm - N/A   Overcast
9:35 PM 3.2 °F - -4.0 °F 72% 29.91 in 10.0 mi Calm Calm - N/A   Overcast
9:55 PM 3.2 °F - -4.0 °F 72% 29.90 in 10.0 mi Calm Calm - N/A   Overcast
10:15 PM 3.2 °F - -4.0 °F 72% 29.90 in 10.0 mi Calm Calm - N/A   Overcast
10:35 PM 3.2 °F - -4.0 °F 72% 29.90 in 10.0 mi Calm Calm - N/A   Mostly Cloudy
10:55 PM 3.2 °F - -4.0 °F 72% 29.89 in 10.0 mi Calm Calm - N/A   Mostly Cloudy
11:15 PM 1.4 °F - -4.0 °F 78% 29.88 in 7.0 mi Calm Calm - N/A   Overcast
11:35 PM 1.4 °F - -4.0 °F 78% 29.88 in 10.0 mi Calm Calm - N/A   Overcast
11:55 PM 3.2 °F - -4.0 °F 72% 29.88 in 5.0 mi Calm Calm - N/A Snow Light Snow